Aeroporto :
LOGIN :

Iscrizione | Disclaimer

   EN    FR    IT 

 










Sommario :    VFR   VFR Marginale   IFR   IFR Intensivo   IFR Molto Intensivo
Visibilità : 
Base nubi : 
>= 8 km
>= 3000ft
5 / 8 km
1000 / 3000 ft
1500m / 5 km
500 / 1000 ft
800 / 1500m
200 / 500 ft
< 800m
< 200 ft
Simboli :   Temporali  Nebbia  Neve Forte  Precipitazioni Forti  Vento > 20 kt
SIGMETs :   Varie  Temporali  Ghiacco  Turbolenza  Onda orograficha  Ceneri Vulcaniche







- Altitudine del aeroporto : 289 ft
- Carte del aeroporto


LFYR - Romorantin Pruniers

ULTIMO METAR :
  • 232100Z AUTO 00000KT CAVOK 14/11 Q1016

METARs OBSOLETI :
  • 232030Z AUTO 00000KT CAVOK 14/11 Q1016
  • 232000Z AUTO 00000KT CAVOK 15/12 Q1016
  • 231930Z AUTO 00000KT CAVOK 17/13 Q1016
  • 231900Z AUTO 00000KT CAVOK 19/10 Q1016
  • 231830Z AUTO 00000KT CAVOK 20/12 Q1016

Previsioni scadute.
Nessun NOTAM noto per questo aeroporto.



MetMap, La meteo Aeronautica in un colpo d'occhio ! - Copyright ORBIFLY Dicembre 2007 - Disclaimer

ORBIFLY MET'MAP TEAM :

Programmazione e sviluppo : Alexandra Zaïnal
Concezione e sviluppo : Baudouin d'Aumeries
Co-Programmazione e sviluppo : Marc-Olivier Méhu
Supporto tecnico e logistico : Manuel Goepfert
Aiuto per la traduzione : Arnaldo La Scala

Contatto : metmap@orbifly.com




FONTI E CREDITI :

   NOAA